Temperature
22 24 25 26 26 26 24 22 22 23 23 23 23 23 23 24 24 24 24 24 24 23 23 23 23 22 22 22 21 21 20 20 20 19 19 18 18 18 17 17 17 16 16 16
23 24 25 25 26 26 26 24 24 23 23 23 24 24 24 24 24 23 23 24 24 23 23 23 23 22 22 21 21 21 20 20 19 19 18 18 18 17 17 17 16 16 16 16
20 22 24 24 25 25 25 25 24 23 23 22 22 22 23 23 24 23 23 24 23 23 23 23 22 22 22 21 21 20 20 20 19 19 18 18 17 17 17 16 16 16 15 15
18 22 22 22 23 25 25 25 24 23 23 22 22 23 24 24 24 24 24 24 23 23 22 22 22 22 22 21 20 20 20 19 19 18 18 18 17 17 16 16 16 15 15 15
17 19 21 22 24 25 24 23 23 22 22 22 23 22 22 23 24 25 24 24 23 23 22 22 22 21 21 21 20 20 19 19 18 18 18 17 17 17 16 16 16 15 15 14
17 20 20 22 23 25 24 22 22 22 21 22 22 20 21 23 24 24 24 23 23 22 22 22 22 21 21 20 20 19 19 19 18 18 17 17 17 16 16 16 15 15 15 14
18 19 19 21 23 24 22 21 22 22 22 22 21 21 23 23 23 24 23 23 22 22 22 22 21 21 20 20 19 19 19 18 18 17 17 17 16 16 16 15 15 15 14 14
16 18 19 21 22 21 21 22 22 22 22 22 22 22 22 22 23 23 22 22 22 22 21 21 21 21 20 20 19 19 18 18 17 17 17 16 16 16 15 15 15 14 14 14
16 17 19 21 21 22 23 22 22 22 22 22 22 22 22 21 22 22 22 21 21 21 21 20 20 20 20 19 19 18 18 17 17 16 16 16 16 15 15 15 14 14 14 14
16 17 19 21 21 22 23 22 22 22 22 21 21 21 21 21 21 21 21 21 20 20 20 20 19 19 19 19 18 18 17 17 16 16 16 15 15 15 15 15 14 14 14 13
16 16 18 19 20 21 21 22 21 21 21 21 21 20 20 20 20 20 20 20 20 20 20 19 19 19 18 18 18 17 17 16 16 16 15 15 15 14 14 14 14 14 14 14
15 16 16 17 19 20 21 21 20 20 20 20 20 20 20 20 20 20 20 20 19 19 19 19 18 18 18 17 17 17 16 16 16 15 15 14 14 14 14 14 13 13 13 13
16 17 17 18 19 19 19 20 20 20 20 19 19 19 19 19 19 19 19 19 19 18 18 18 18 17 17 17 16 16 16 16 15 15 14 14 14 14 14 13 13 13 13 13
17 17 17 18 18 19 19 19 19 19 18 19 18 18 18 18 18 18 18 18 18 18 17 17 17 17 16 16 16 16 15 15 15 14 14 14 14 13 13 13 13 13 13 12
16 17 16 17 18 18 18 18 18 18 18 17 18 18 18 18 17 17 17 17 17 17 16 16 16 16 16 16 15 15 15 15 14 14 14 14 13 13 13 13 13 13 12 12
16 17 17 16 17 17 17 17 17 17 17 17 17 17 17 17 17 17 16 16 16 16 16 16 16 16 15 15 15 15 15 14 14 14 13 13 13 13 13 13 13 12 12 12
16 16 16 16 16 16 17 17 17 17 16 16 16 17 17 16 16 16 16 16 16 16 16 16 16 15 15 15 15 14 14 14 14 13 13 13 13 13 13 13 12 12 12 12
16 16 16 16 16 16 16 16 16 16 16 16 16 16 16 16 16 16 16 15 15 15 15 15 15 15 15 14 14 14 14 14 13 13 13 13 13 13 12 12 12 12 12 12
16 16 16 16 16 16 16 16 16 16 16 16 16 16 16 16 16 16 16 15 15 15 15 15 15 14 14 14 14 14 13 13 13 13 13 12 12 12 12 12 12 12 12 11
15 15 15 15 15 15 15 15 15 15 15 15 15 15 15 15 15 15 15 15 15 15 15 14 14 14 14 13 13 13 13 13 13 13 12 12 12 12 12 12 12 12 11 11
15 15 15 15 15 15 15 15 15 15 15 15 15 15 15 15 15 15 15 14 14 14 14 14 14 14 13 13 13 13 13 13 13 12 12 12 12 12 12 12 12 11 11 11
14 14 14 14 14 14 14 15 15 15 15 15 15 14 14 14 14 14 14 14 14 14 14 14 14 13 13 13 13 13 12 12 12 12 12 12 12 12 12 12 11 11 11 11
13 13 14 14 14 14 14 14 14 14 14 14 14 14 14 14 14 14 14 14 14 14 13 13 13 13 13 13 13 13 13 12 12 12 12 12 12 12 12 11 11 11 11 11
13 13 13 13 13 13 13 13 13 13 14 14 14 14 14 14 14 14 14 14 13 13 13 13 13 13 13 12 12 12 12 12 12 12 12 12 12 12 12 11 11 11 11 11
13 13 13 13 13 13 13 13 13 13 13 13 13 13 13 14 14 13 13 13 13 13 13 13 13 13 12 12 12 12 12 12 12 12 12 12 12 12 11 11 11 11 11 11
12 12 12 12 12 12 12 12 12 12 13 13 13 13 13 13 13 13 13 13 13 13 13 13 12 12 12 12 12 12 12 12 12 12 11 11 11 11 11 11 11 11 11 10
12 12 12 12 12 12 12 12 12 12 12 12 12 12 12 13 13 13 13 13 13 13 12 12 12 12 12 11 11 11 11 11 11 11 11 11 11 11 11 11 11 11 10 10
Wind_Speed
5 5 2 3 5 4 4 8 8 9 9 10 11 11 10 10 10 10 12 12 12 11 9 9 10 9 9 8 8 8 8 7 6 5 6 5 4 4 4 4 4 4 4 4
2 2 2 4 5 5 4 5 6 6 6 7 7 8 10 11 12 12 12 13 12 12 11 11 11 11 10 9 8 8 9 8 7 7 6 5 5 4 5 5 4 5 5 5
2 3 3 5 6 5 4 3 7 8 9 7 7 11 13 13 12 12 12 12 12 11 10 10 11 11 11 9 9 9 8 8 7 7 7 5 6 5 5 5 5 5 5 5
1 3 4 9 5 4 3 3 3 5 7 9 10 10 8 10 12 12 11 12 12 11 10 9 9 10 10 9 9 8 7 7 7 8 7 6 6 6 5 5 5 4 4 4
3 2 5 8 5 3 3 2 1 4 6 7 8 7 3 4 9 11 11 12 11 11 11 10 10 10 10 9 8 8 7 6 6 7 7 7 7 6 5 5 5 4 4 4
4 4 6 7 7 2 5 1 3 5 7 8 8 6 5 6 8 9 9 10 10 11 11 11 10 11 11 9 8 8 7 6 6 7 7 7 7 6 5 5 5 5 4 4
4 4 6 7 7 3 5 6 3 4 7 8 5 6 7 8 8 9 10 10 10 11 10 10 10 11 10 8 7 7 6 6 6 6 6 7 6 6 6 6 6 5 4 3
4 4 6 6 3 3 6 4 3 4 5 5 5 7 8 9 9 10 10 9 9 10 8 8 9 11 10 8 6 6 7 7 6 6 6 6 6 6 6 7 7 5 4 3
6 6 6 3 1 2 4 5 3 3 5 7 7 7 8 8 8 9 9 9 8 10 9 8 8 10 10 8 8 8 7 7 7 6 5 6 7 7 6 6 6 5 4 3
1 2 4 4 3 3 2 4 4 6 7 7 6 7 8 8 7 8 8 8 8 9 10 8 7 7 8 8 9 9 8 7 7 7 6 5 4 5 5 5 6 5 5 4
0 2 5 7 4 2 3 4 6 6 6 6 8 7 7 7 7 9 8 7 8 8 9 8 7 7 7 8 9 9 8 8 7 6 6 5 4 3 4 4 5 7 6 6
3 4 2 4 5 2 3 3 5 7 6 5 5 5 6 6 6 8 9 7 8 8 8 7 7 7 6 8 9 10 8 8 7 6 6 5 5 4 6 3 3 5 6 7
3 3 2 3 4 2 2 3 5 6 6 6 4 5 6 5 5 6 7 8 8 8 8 7 7 6 6 7 9 9 9 8 7 7 6 6 6 6 4 3 5 4 5 7
1 2 3 3 2 3 2 3 5 5 4 5 5 5 5 5 5 6 6 7 7 7 7 7 7 6 6 7 8 8 8 9 8 7 7 6 6 6 6 5 3 1 1 5
2 1 1 2 2 2 3 4 5 4 4 4 4 5 5 5 4 5 5 6 7 7 6 6 7 6 6 7 8 8 7 6 6 6 6 6 6 6 5 6 5 4 2 1
2 4 4 3 1 2 3 3 3 2 3 3 3 3 5 5 5 6 6 7 8 7 7 7 7 6 7 8 8 7 6 8 7 6 6 6 6 6 6 6 5 5 5 4
1 1 2 2 1 0 1 2 4 3 2 3 2 2 4 6 6 6 6 6 6 6 6 7 6 6 6 7 7 6 5 6 8 6 5 6 6 6 6 6 6 5 5 6
4 3 3 2 2 2 2 3 4 4 2 2 2 3 5 6 6 6 5 5 5 4 4 5 6 6 6 6 6 6 6 5 5 5 4 5 5 6 6 6 6 6 4 4
2 2 2 1 2 3 3 3 3 3 2 2 2 4 4 5 6 5 5 5 6 5 5 6 8 7 6 7 7 5 6 6 5 5 4 5 5 5 5 6 6 6 6 5
3 3 3 1 1 3 4 3 3 3 2 3 4 4 3 3 5 6 6 5 5 5 5 6 7 6 6 6 7 5 6 6 6 5 5 5 5 5 5 5 6 6 6 6
3 3 3 3 1 2 3 3 3 2 1 3 5 5 4 3 4 5 5 3 2 4 6 8 6 5 5 6 6 5 5 5 5 5 5 5 5 5 5 5 5 5 5 5
2 3 4 3 3 3 1 2 3 3 3 3 4 5 5 4 3 3 3 3 4 6 5 5 4 6 7 7 5 5 5 5 5 4 4 4 5 5 5 5 5 4 5 5
3 3 3 3 3 2 2 2 2 2 2 3 4 4 4 4 4 4 2 2 3 6 5 4 5 7 8 5 4 4 5 5 4 5 5 5 5 5 5 5 5 5 5 5
2 2 2 2 4 4 3 2 1 1 1 2 2 3 4 3 2 2 3 5 7 7 4 5 7 8 7 4 3 3 4 4 4 4 4 4 4 4 4 4 4 4 4 5
1 1 2 3 3 2 0 1 1 1 1 1 1 1 2 3 3 3 3 5 8 7 4 5 8 8 5 3 4 3 3 3 3 4 3 4 4 4 4 4 4 4 4 5
0 0 0 1 1 1 1 1 1 0 1 1 0 0 0 1 3 3 4 5 6 6 5 4 4 5 3 3 3 3 3 3 3 3 3 3 4 4 4 4 5 4 4 5
1 1 1 1 1 0 1 1 2 1 1 2 1 0 1 2 3 4 5 5 5 4 4 4 4 3 3 3 3 3 2 2 2 3 3 3 3 4 4 5 4 4 4 5
Wind_Direction
211 230 214 241 255 240 189 184 184 211 200 210 196 177 168 163 160 156 151 155 157 157 159 158 154 153 149 147 148 148 143 143 147 138 129 123 118 112 101 96 95 86 76 64
310 317 314 281 271 255 230 189 182 175 217 221 193 162 158 163 160 159 159 162 159 158 159 160 157 154 152 151 149 145 147 150 148 138 134 131 127 117 103 91 84 79 73 71
271 320 27 277 244 225 226 209 175 197 215 187 165 172 173 169 160 160 164 161 158 159 161 160 158 154 154 152 146 144 148 151 150 146 144 145 139 123 116 106 96 87 80 78
123 60 220 243 246 192 191 244 193 182 186 172 169 176 169 165 161 162 161 158 158 158 157 157 150 144 141 137 140 144 146 150 154 152 150 143 133 130 123 116 109 101 89 82
128 176 271 290 285 165 149 299 248 152 146 138 139 109 90 168 163 160 164 163 159 159 154 147 144 143 136 135 138 141 146 150 154 154 151 149 145 142 138 126 114 108 103 93
142 164 219 251 283 260 108 319 289 150 148 144 131 138 203 190 161 145 145 150 151 147 141 140 143 139 136 141 145 154 158 155 153 153 152 154 154 148 140 131 127 120 103 96
168 201 252 263 294 56 124 216 238 159 151 150 160 180 178 161 151 141 137 139 144 142 142 146 143 139 141 146 160 162 150 143 142 144 147 149 145 140 137 133 127 121 113 98
160 186 250 295 6 139 197 193 159 129 130 132 131 128 131 133 135 131 130 128 132 135 135 138 141 142 146 157 162 149 140 137 139 141 144 141 139 137 139 139 136 134 124 106
183 210 247 296 173 195 150 129 131 129 121 121 123 130 129 129 133 137 136 134 135 138 135 137 145 150 154 163 157 147 139 139 141 138 133 140 144 146 146 148 150 152 148 146
142 297 314 347 20 32 95 132 130 127 119 113 121 133 135 137 138 139 138 140 140 141 144 151 157 159 162 159 154 149 148 147 145 142 138 137 141 149 154 161 161 159 162 168
32 307 354 354 358 15 73 99 108 107 110 126 129 137 142 142 146 148 147 150 145 150 152 156 156 157 160 156 151 149 151 151 148 146 146 138 127 132 160 172 178 173 180 176
231 249 213 286 314 2 82 97 113 112 99 100 122 136 140 144 149 147 144 143 143 149 150 152 154 157 161 160 156 154 156 157 157 155 150 144 134 93 51 78 130 166 172 168
219 255 242 276 331 2 85 98 99 105 113 106 98 111 124 134 135 136 139 145 153 159 158 156 158 163 167 165 161 162 166 166 164 162 160 159 157 149 133 55 57 89 150 158
267 55 360 338 335 12 64 86 90 86 91 105 108 103 112 120 125 135 150 156 153 151 153 154 158 169 172 166 165 165 164 168 169 170 169 169 171 167 161 158 150 88 80 162
326 46 256 291 5 66 86 92 97 97 101 102 111 116 123 126 147 159 160 148 140 144 152 156 163 175 173 166 165 164 166 171 171 168 167 167 167 169 166 163 159 157 144 149
347 4 1 350 9 85 93 102 126 132 133 131 120 132 143 150 158 158 153 149 150 160 167 169 174 181 173 163 161 165 168 166 163 161 164 165 165 168 170 168 168 173 181 183
132 328 312 301 299 111 136 148 155 162 166 151 159 154 137 135 135 146 153 156 160 169 171 174 177 174 164 160 160 167 164 165 160 158 169 171 170 174 174 174 178 187 197 190
168 180 200 185 184 169 141 126 123 126 134 169 176 135 128 139 149 159 158 147 140 150 167 169 162 156 155 156 156 157 159 161 164 166 173 174 176 175 173 177 182 185 188 184
143 123 106 114 171 152 133 124 124 122 133 139 113 125 135 144 144 142 138 139 151 168 183 168 154 152 155 157 153 154 158 160 163 166 175 177 176 175 177 181 182 183 181 178
82 74 95 106 122 123 114 104 100 99 98 109 111 107 109 131 135 140 142 157 182 184 171 157 154 156 160 160 151 155 162 169 174 175 178 181 181 181 179 178 176 177 180 182
78 79 76 60 50 89 105 120 127 124 127 125 126 135 140 149 149 142 140 156 194 163 154 155 157 159 159 159 155 158 165 169 173 174 177 178 175 174 176 176 176 180 186 189
87 93 82 64 74 81 92 123 132 143 144 144 140 142 144 149 145 136 154 176 177 159 154 159 159 160 160 154 157 161 168 169 172 171 172 172 170 170 173 173 176 183 187 188
82 92 85 75 80 76 60 71 100 123 135 147 148 155 162 168 160 152 170 189 153 155 154 160 154 151 152 150 155 162 165 169 173 175 177 176 174 173 177 179 183 184 185 187
78 79 74 72 76 71 47 16 42 97 129 138 163 169 161 152 146 174 165 157 152 149 150 152 148 150 149 150 153 159 162 168 175 179 184 181 178 178 179 179 183 185 185 182
80 69 71 77 78 87 88 1 30 41 81 120 167 188 177 166 168 173 153 151 152 143 135 148 153 156 152 149 155 155 154 161 168 166 172 175 178 182 185 185 183 178 175 173
29 177 175 172 177 188 192 164 147 175 128 116 105 176 153 133 139 140 136 140 141 141 137 141 150 153 148 147 149 148 144 145 150 156 160 162 165 167 172 172 168 166 165 167
10 28 52 5 321 203 167 151 155 172 164 149 134 87 104 119 126 132 131 132 135 134 131 135 142 147 145 144 141 137 135 137 137 139 147 150 149 151 157 154 152 150 147 146
Height
1491 1487 1485 1487 1486 1486 1494 1502 1512 1508 1505 1498 1493 1493 1495 1498 1502 1504 1506 1509 1512 1515 1518 1522 1525 1528 1531 1533 1535 1537 1539 1540 1541 1541 1541 1542 1542 1542 1542 1541 1541 1540 1540 1539
1491 1484 1483 1485 1483 1483 1486 1489 1494 1496 1498 1488 1488 1492 1494 1497 1499 1502 1505 1508 1511 1514 1517 1520 1523 1526 1529 1531 1534 1536 1537 1539 1539 1540 1541 1541 1542 1542 1541 1541 1541 1541 1540 1540
1503 1490 1488 1495 1483 1482 1482 1481 1486 1494 1490 1485 1489 1490 1490 1493 1495 1498 1502 1505 1509 1513 1515 1518 1521 1524 1526 1529 1532 1534 1536 1537 1538 1539 1540 1541 1541 1541 1541 1540 1540 1540 1540 1540
1505 1499 1508 1492 1473 1473 1476 1477 1477 1479 1479 1480 1483 1486 1488 1489 1492 1495 1499 1503 1506 1510 1514 1517 1520 1522 1525 1528 1530 1532 1534 1535 1537 1538 1538 1539 1540 1540 1540 1540 1540 1540 1540 1540
1510 1509 1501 1483 1472 1471 1477 1482 1477 1477 1478 1481 1483 1486 1490 1490 1491 1493 1497 1501 1504 1509 1512 1515 1518 1521 1524 1526 1529 1531 1532 1534 1535 1536 1537 1538 1539 1539 1540 1540 1540 1540 1540 1540
1505 1506 1507 1487 1470 1467 1472 1487 1477 1476 1477 1479 1481 1490 1491 1489 1491 1493 1496 1500 1504 1507 1511 1514 1517 1520 1522 1525 1527 1529 1530 1532 1533 1535 1536 1537 1537 1538 1539 1540 1540 1540 1540 1541
1501 1502 1494 1476 1469 1467 1487 1488 1476 1475 1475 1476 1479 1482 1484 1486 1489 1492 1496 1500 1503 1506 1509 1512 1515 1518 1521 1523 1525 1527 1529 1530 1531 1533 1534 1535 1536 1537 1538 1539 1539 1540 1540 1541
1500 1502 1497 1471 1469 1474 1477 1472 1473 1474 1474 1476 1477 1479 1482 1484 1488 1491 1495 1498 1501 1504 1507 1510 1514 1517 1519 1521 1524 1526 1527 1528 1530 1531 1532 1534 1535 1536 1537 1538 1538 1539 1540 1540
1489 1489 1477 1471 1470 1470 1469 1471 1473 1473 1475 1476 1477 1479 1482 1485 1488 1492 1494 1497 1500 1503 1506 1509 1512 1515 1517 1519 1521 1524 1525 1526 1528 1529 1531 1532 1533 1534 1536 1536 1537 1538 1539 1539
1481 1478 1474 1472 1470 1469 1469 1470 1472 1473 1475 1476 1478 1480 1481 1484 1487 1490 1493 1496 1498 1501 1504 1507 1510 1513 1515 1517 1519 1521 1522 1524 1526 1527 1528 1530 1532 1533 1534 1534 1535 1536 1537 1538
1480 1477 1474 1472 1472 1471 1470 1471 1472 1474 1475 1477 1478 1480 1482 1483 1486 1489 1492 1494 1496 1499 1502 1505 1508 1511 1513 1515 1517 1518 1520 1522 1523 1525 1526 1528 1529 1531 1532 1533 1534 1535 1536 1537
1482 1479 1478 1476 1474 1472 1471 1471 1472 1473 1474 1477 1478 1480 1482 1483 1485 1487 1489 1492 1495 1498 1501 1503 1506 1508 1510 1513 1514 1516 1518 1519 1521 1523 1524 1526 1527 1528 1530 1531 1532 1534 1535 1536
1476 1475 1475 1473 1473 1472 1471 1471 1472 1473 1474 1475 1478 1480 1481 1483 1485 1487 1489 1491 1493 1496 1499 1501 1503 1505 1508 1510 1512 1513 1515 1517 1518 1520 1522 1524 1525 1526 1527 1529 1531 1532 1533 1534
1474 1474 1473 1472 1473 1472 1472 1472 1472 1474 1475 1475 1476 1478 1480 1482 1484 1486 1488 1490 1492 1495 1497 1499 1500 1503 1505 1507 1509 1511 1513 1515 1516 1518 1520 1522 1523 1525 1526 1527 1528 1529 1531 1532
1473 1472 1472 1471 1471 1471 1471 1472 1472 1473 1474 1475 1475 1476 1478 1480 1482 1485 1488 1490 1491 1493 1495 1496 1498 1500 1502 1504 1506 1508 1510 1512 1514 1516 1517 1519 1521 1523 1524 1525 1526 1527 1528 1529
1470 1469 1469 1470 1471 1470 1470 1471 1472 1472 1473 1473 1474 1474 1476 1478 1480 1482 1485 1487 1489 1490 1492 1493 1495 1497 1499 1501 1503 1505 1507 1509 1511 1513 1515 1517 1518 1519 1521 1522 1523 1524 1526 1527
1468 1468 1469 1470 1470 1469 1470 1471 1471 1472 1472 1472 1473 1473 1474 1475 1477 1480 1482 1485 1487 1488 1490 1491 1492 1494 1496 1498 1500 1502 1504 1506 1509 1510 1512 1514 1515 1517 1518 1520 1521 1522 1523 1525
1466 1466 1467 1468 1468 1469 1469 1469 1470 1471 1471 1471 1472 1472 1472 1473 1475 1478 1480 1483 1485 1487 1488 1489 1490 1492 1493 1495 1497 1499 1501 1503 1506 1507 1510 1511 1513 1514 1516 1517 1519 1520 1521 1522
1463 1464 1465 1466 1467 1467 1467 1468 1469 1469 1471 1471 1470 1471 1472 1473 1475 1477 1479 1481 1483 1485 1486 1487 1488 1490 1491 1493 1495 1497 1499 1500 1503 1505 1507 1508 1510 1511 1513 1514 1516 1517 1518 1519
1463 1464 1464 1465 1465 1464 1465 1466 1468 1469 1470 1470 1471 1471 1472 1474 1475 1476 1478 1480 1482 1483 1485 1485 1487 1488 1490 1492 1494 1495 1497 1499 1500 1502 1504 1506 1507 1509 1510 1512 1513 1514 1515 1516
1462 1464 1464 1463 1463 1464 1464 1466 1468 1469 1469 1471 1471 1472 1473 1475 1475 1476 1477 1479 1481 1482 1484 1485 1485 1487 1489 1491 1492 1494 1496 1497 1499 1500 1502 1504 1505 1506 1508 1509 1510 1512 1513 1514
1462 1463 1463 1463 1461 1463 1464 1466 1467 1468 1469 1470 1471 1472 1474 1475 1476 1477 1478 1479 1480 1482 1483 1484 1485 1486 1488 1490 1491 1493 1495 1496 1498 1499 1501 1502 1503 1504 1505 1507 1508 1509 1510 1511
1461 1462 1463 1463 1463 1463 1464 1465 1467 1468 1468 1469 1470 1471 1473 1474 1475 1476 1477 1478 1480 1481 1482 1483 1484 1486 1487 1489 1491 1492 1494 1495 1496 1498 1499 1500 1501 1502 1503 1504 1506 1506 1507 1508
1462 1463 1463 1463 1463 1463 1464 1466 1466 1467 1468 1469 1470 1471 1472 1473 1474 1475 1476 1477 1479 1479 1480 1482 1483 1485 1486 1488 1489 1491 1492 1494 1495 1496 1498 1499 1499 1500 1501 1502 1503 1503 1504 1505
1462 1462 1463 1463 1463 1464 1465 1466 1466 1466 1467 1468 1469 1470 1471 1472 1473 1474 1475 1477 1478 1479 1480 1482 1483 1485 1486 1487 1488 1490 1491 1493 1494 1495 1496 1497 1497 1498 1499 1500 1500 1501 1502 1502
1462 1462 1462 1463 1463 1464 1464 1464 1465 1465 1466 1467 1468 1469 1470 1471 1472 1473 1474 1476 1477 1479 1480 1482 1483 1484 1486 1487 1488 1489 1490 1492 1493 1494 1494 1495 1496 1497 1497 1498 1498 1499 1500 1501
1461 1461 1461 1462 1462 1463 1463 1463 1464 1465 1465 1466 1467 1468 1469 1470 1472 1473 1474 1475 1477 1478 1480 1482 1483 1484 1485 1487 1488 1489 1490 1491 1492 1493 1493 1494 1495 1495 1496 1496 1497 1497 1498 1499